[[{"header":{"parameterUnit":"m.s-1","parameterCategory":1,"la1":30.2991,"la2":30.254,"lo1":-89.0895,"lo2":-89.0444,"dy":0.0017,"dx":0.0017,"nx":28,"ny":28,"refTime":"2024-06-25T09:00:00:Z","depth":0,"parameterNumber":2,"parameterNumberName":"U-component_of_WINDS"},"data":[0,0,0,0,0,0,0,0,0,0,0,0,0,0,0,0,0,0,0,0,0,0,0,0,0,0,0,0,0,0,0,0,0,0,0,0,0,0,0,0,0,0,0,0,0,0,0,0,0,0,0,0,0,0,0,0,0,0,3.2949,3.2951,0,3.3123,3.3125,3.3127,3.3117,3.3114,3.3112,3.311,3.3293,3.33,3.3307,0,0,0,0,0,0,0,0,0,0,0,0,0,3.2615,3.2622,3.2949,3.2951,3.2954,3.3122,3.3125,3.3127,3.3117,3.3114,3.3111,3.3108,3.329,3.3299,3.3308,0,0,0,0,0,0,0,0,0,0,0,0,0,3.2772,3.2624,3.2949,3.2969,3.2972,3.3122,3.3125,3.3128,3.3118,3.3114,3.311,3.3107,3.3288,3.3298,3.3309,3.3451,0,0,3.3342,3.3347,0,0,0,0,0,0,0,0,3.2763,3.2784,3.2964,3.2968,3.2972,3.3094,3.3074,3.3237,3.3119,3.3063,3.3109,3.3105,3.323,3.3245,3.3286,3.346,3.3468,3.3343,3.3349,3.3354,3.3357,0,0,0,0,0,0,0,3.2752,3.2777,3.3018,3.2966,3.2972,3.2971,3.2989,3.3105,3.3166,3.3068,3.3067,3.3088,3.3232,3.3276,3.3291,3.3471,3.3343,3.3352,3.3359,3.3363,3.377,3.3774,0,0,0,0,0,0,3.2736,3.2768,3.3013,3.3023,3.2856,3.298,3.3,3.3059,3.3164,3.3177,3.3091,3.3086,3.3259,3.3278,3.3297,3.347,3.3354,3.3364,3.337,3.3766,3.3771,3.3775,0,0,0,0,0,0,3.2729,3.2758,3.3006,3.2896,3.2927,3.299,3.3056,3.3064,3.3108,3.3182,3.3193,3.3124,3.3257,3.3282,3.3413,3.3476,3.3369,3.3379,3.376,3.3767,3.3773,3.3817,0,0,0,0,0,0,3.2719,3.2755,3.2809,3.2897,3.2933,3.3116,3.306,3.307,3.3127,3.3123,3.3216,3.3228,3.3256,3.3396,3.3423,3.3489,3.3387,3.3755,3.3763,3.3771,3.381,3.3824,3.3836,0,0,0,0,0,3.2708,3.2816,3.2811,3.2841,3.3,3.312,3.3141,3.3169,3.3132,3.3187,3.3234,3.3225,3.3465,3.341,3.344,3.351,3.3751,3.3761,3.377,3.3804,3.3822,3.3836,0,0,0,0,0,0,3.2735,3.2827,3.2824,3.2963,3.3034,3.3118,3.3188,3.3186,3.327,3.3263,3.3296,3.3318,3.3448,3.3493,3.343,3.3654,3.3604,3.362,3.3619,3.3636,3.3649,3.3634,3.3396,0,0,0,0,0,3.2757,3.2845,3.2922,3.3037,3.3073,3.3124,3.3178,3.3193,3.3268,3.3298,3.3355,3.343,3.3522,3.3582,3.3671,3.3818,3.3838,3.3881,3.3894,3.3904,3.3917,3.3997,3.4017,3.3807,3.3807,3.3807,0,0,3.2804,3.2865,3.2919,3.3044,3.3101,3.3192,3.315,3.3248,3.3317,3.3314,3.3439,3.3485,3.357,3.3709,3.3773,3.375,3.398,3.3917,3.3924,3.3932,3.4009,3.4029,3.4047,3.3814,3.3813,3.3811,0,0,3.2935,3.2991,3.3093,3.315,3.3235,3.3269,3.3294,3.3379,3.3408,3.3535,3.3534,3.3618,3.3776,3.3837,3.3888,3.4044,3.4039,3.4073,3.414,3.4218,3.4234,3.4249,3.4303,3.4322,3.4086,3.4086,3.4086,0,3.2983,3.3118,3.3146,3.3245,3.33,3.3301,3.3405,3.346,3.3571,3.361,3.3582,3.378,3.3839,3.3991,3.4029,3.4072,3.4101,3.4061,3.4229,3.4244,3.4259,3.4311,3.4331,3.4089,3.4089,3.4089,3.4088,0,3.3172,3.3267,3.3339,3.3444,3.3508,3.3609,3.3653,3.3716,3.3726,3.3764,3.3893,3.3963,3.4065,3.4104,3.4116,3.4259,3.4241,3.4222,3.4171,3.4281,3.4331,3.4351,3.4094,3.4093,3.4092,3.4091,0,0,3.3323,3.3442,3.3468,3.3516,3.3611,3.3685,3.3788,3.3886,3.3938,3.4016,3.4102,3.4237,3.4218,3.4277,3.4297,3.4366,3.4483,3.4338,3.434,3.436,3.4643,3.4656,3.4678,3.4482,3.4485,3.4489,3.4635,0,3.3463,3.3641,3.3669,3.3826,3.3914,3.3917,3.4006,3.4075,3.4113,3.4195,3.4238,3.4332,3.4302,3.4337,3.4406,3.4454,3.454,3.4444,3.4562,3.4566,3.4537,3.4704,3.4718,3.4852,3.4655,3.4659,3.4661,0,3.3648,3.3728,3.3893,3.3976,3.4014,3.4093,3.4186,3.4264,3.4343,3.4366,3.4432,3.4443,3.4551,3.4498,3.4647,3.4581,3.4632,3.4663,3.467,3.4679,3.4618,3.4717,3.4896,3.4916,3.4692,3.4689,3.4687,0,3.3739,3.3889,3.4007,3.4048,3.4148,3.4203,3.4248,3.4323,3.4381,3.4463,3.4501,3.4596,3.4647,3.4721,3.4759,3.4717,3.4905,3.4855,3.4927,3.4926,3.4964,3.496,3.5152,3.5001,3.5001,3.5,3.5,0,3.389,3.399,3.4048,3.4121,3.4234,3.4267,3.4379,3.4423,3.449,3.4572,3.4583,3.466,3.4705,3.479,3.4821,3.4939,3.4963,3.4985,3.4991,3.4982,3.4979,3.5014,3.5004,3.5006,3.5005,3.5004,3.5003,0,3.4009,3.4052,3.418,3.4265,3.4289,3.4368,3.4441,3.4513,3.4551,3.4655,3.4682,3.4743,3.4843,3.4888,3.5012,3.5033,3.5167,3.5168,3.5139,3.514,3.5209,3.5201,3.5427,3.5458,3.5289,3.529,3.5292,0,3.41,3.4178,3.427,3.4325,3.4371,3.4459,3.4518,3.4555,3.4615,3.4712,3.4771,3.4871,3.4953,3.5113,3.5169,3.5264,3.5267,3.534,3.5281,3.5269,3.5265,3.5259,3.5266,3.5349,3.5351,3.5352,3.5353,0,3.4258,3.4276,3.4359,3.445,3.4519,3.4593,3.4665,3.471,3.4759,3.4827,3.4928,3.4991,3.5117,3.5216,3.5315,3.5363,3.5367,3.5372,3.5393,3.5383,3.5362,3.5372,3.5165,3.5366,3.5364,3.5363,3.5363,3.5362,3.4365,3.4433,3.4509,3.4601,3.4659,3.4727,3.4797,3.4845,3.4929,3.5033,3.5051,3.5159,3.5237,3.537,3.5422,3.5508,3.549,3.5522,3.5529,3.5536,3.5538,3.535,3.5527,3.5526,3.5526,3.5526,3.5526,0,3.4521,3.457,3.4655,3.4755,3.4828,3.4824,3.4905,3.4966,3.506,3.5132,3.5212,3.5329,3.5425,3.549,3.5588,3.5644,3.5648,3.5668,3.5663,3.5674,3.5549,3.552,3.5663,3.5663,3.5663,3.5663,3.5663,3.5663,3.461,3.4725,3.4752,3.4897,3.4946,3.505,3.5096,3.5159,3.5216,3.5345,3.5425,3.5466,3.5536,3.5639,3.5728,3.5744,3.5779,3.58,3.5815,3.5697,3.5683,3.5669,3.5641,3.5808,3.5808,3.5932,3.5933,3.5934]},{"header":{"parameterUnit":"m.s-1","parameterCategory":1,"la1":30.2991,"la2":30.254,"lo1":-89.0895,"lo2":-89.0444,"dy":0.0017,"dx":0.0017,"nx":28,"ny":28,"refTime":"2024-06-25T09:00:00:Z","depth":0,"parameterNumber":3,"parameterNumberName":"V-component_of_WINDS"},"data":[0,0,0,0,0,0,0,0,0,0,0,0,0,0,0,0,0,0,0,0,0,0,0,0,0,0,0,0,0,0,0,0,0,0,0,0,0,0,0,0,0,0,0,0,0,0,0,0,0,0,0,0,0,0,0,0,0,0,3.9093,3.9094,0,3.921,3.9211,3.9213,3.9213,3.9212,3.921,3.9209,3.9322,3.9326,3.9331,0,0,0,0,0,0,0,0,0,0,0,0,0,3.886,3.8864,3.9092,3.9094,3.9095,3.921,3.9212,3.9213,3.9214,3.9212,3.921,3.9208,3.9321,3.9326,3.9331,0,0,0,0,0,0,0,0,0,0,0,0,0,3.8968,3.8866,3.9092,3.911,3.9112,3.921,3.9212,3.9214,3.9214,3.9212,3.9209,3.9207,3.9319,3.9325,3.9332,3.9417,0,0,3.9352,3.9355,0,0,0,0,0,0,0,0,3.8961,3.8976,3.9106,3.9109,3.9112,3.9195,3.9171,3.9282,3.9214,3.9175,3.9209,3.9206,3.9281,3.9291,3.9317,3.9423,3.9427,3.9353,3.9357,3.9359,3.9361,0,0,0,0,0,0,0,3.8954,3.8971,3.9139,3.9107,3.9111,3.9109,3.9122,3.9192,3.9239,3.9178,3.9179,3.9193,3.9282,3.9311,3.932,3.9429,3.9352,3.9358,3.9362,3.9365,3.9608,3.9611,0,0,0,0,0,0,3.8944,3.8965,3.9135,3.9142,3.903,3.9115,3.9129,3.917,3.9238,3.9247,3.9195,3.9193,3.9301,3.9312,3.9324,3.9428,3.9359,3.9365,3.9369,3.9606,3.9609,3.9611,0,0,0,0,0,0,3.8939,3.8959,3.913,3.9054,3.9075,3.9121,3.9167,3.9174,3.9203,3.9251,3.9258,3.9216,3.9299,3.9315,3.9394,3.9432,3.9368,3.9374,3.9603,3.9607,3.961,3.9636,0,0,0,0,0,0,3.8932,3.8958,3.8993,3.9055,3.908,3.9201,3.917,3.9178,3.9215,3.9213,3.9273,3.928,3.9299,3.9384,3.9401,3.9439,3.938,3.96,3.9604,3.9609,3.9632,3.964,3.9647,0,0,0,0,0,3.8924,3.8994,3.8994,3.9015,3.9125,3.9203,3.9217,3.9239,3.9218,3.9252,3.9283,3.9278,3.9425,3.9392,3.9411,3.9452,3.9597,3.9603,3.9609,3.9629,3.9639,3.9647,0,0,0,0,0,0,3.8933,3.9002,3.9004,3.9096,3.9144,3.9203,3.9247,3.9249,3.9302,3.9298,3.9321,3.9334,3.9413,3.9441,3.9403,3.9537,3.9508,3.9518,3.9517,3.9527,3.9534,3.9526,3.9385,0,0,0,0,0,3.8946,3.9006,3.9063,3.9139,3.9163,3.9201,3.9236,3.9249,3.9299,3.9318,3.9355,3.9401,3.9457,3.9493,3.9548,3.9636,3.9648,3.9673,3.9681,3.9687,3.9695,3.9741,3.9753,3.963,3.963,3.963,0,0,3.8972,3.9018,3.9054,3.9142,3.918,3.924,3.9218,3.9282,3.9326,3.9327,3.9405,3.9433,3.9486,3.957,3.9608,3.9595,3.9731,3.9694,3.9698,3.9703,3.9748,3.976,3.977,3.9634,3.9633,3.9632,0,0,3.9052,3.9093,3.9161,3.92,3.926,3.9284,3.93,3.936,3.9379,3.9458,3.946,3.951,3.9607,3.9645,3.9676,3.9768,3.9766,3.9785,3.9825,3.987,3.988,3.9888,3.992,3.9931,3.9793,3.9793,3.9793,0,3.9076,3.917,3.9194,3.9259,3.9296,3.9302,3.9369,3.9405,3.9478,3.9503,3.9487,3.9608,3.9644,3.9736,3.9759,3.9785,3.9802,3.9778,3.9877,3.9886,3.9894,3.9924,3.9936,3.9795,3.9795,3.9794,3.9794,0,3.9196,3.926,3.9307,3.9381,3.9423,3.9488,3.952,3.956,3.9568,3.9594,3.9673,3.9716,3.9779,3.9802,3.981,3.9894,3.9884,3.9872,3.9843,3.9907,3.9936,3.9948,3.9798,3.9797,3.9796,3.9796,0,0,3.9284,3.9371,3.9387,3.942,3.9486,3.9534,3.9599,3.9663,3.9695,3.9745,3.9798,3.988,3.9869,3.9905,3.9917,3.9957,4.0026,3.994,3.9942,3.9954,4.0119,4.0127,4.0141,4.0025,4.0027,4.0029,4.0115,0,3.937,3.9488,3.9511,3.9612,3.9671,3.9676,3.9732,3.9777,3.9802,3.9853,3.9879,3.9937,3.9919,3.994,3.998,4.0009,4.0059,4.0003,4.0072,4.0074,4.0058,4.0156,4.0165,4.0244,4.0126,4.0128,4.0129,0,3.9486,3.9541,3.9648,3.9706,3.9731,3.9781,3.9841,3.989,3.994,3.9955,3.9995,4.0003,4.0067,4.0035,4.0123,4.0084,4.0113,4.0131,4.0135,4.0141,4.0105,4.0164,4.027,4.0281,4.0148,4.0146,4.0145,0,3.9538,3.9639,3.9716,3.9744,3.9813,3.9848,3.9877,3.9925,3.9962,4.0013,4.0036,4.0093,4.0124,4.0167,4.0188,4.0164,4.0274,4.0244,4.0286,4.0285,4.0309,4.0307,4.0419,4.0329,4.0328,4.0328,4.0328,0,3.9631,3.9696,3.974,3.9787,3.986,3.9885,3.9955,3.9983,4.0026,4.0077,4.0084,4.0131,4.0158,4.0208,4.0225,4.0294,4.0308,4.032,4.0324,4.0319,4.0317,4.0338,4.0333,4.0331,4.0331,4.033,4.033,0,3.9701,3.9734,3.9818,3.9877,3.9893,3.9943,3.9992,4.0037,4.0062,4.0126,4.0142,4.0181,4.024,4.0266,4.0339,4.035,4.0428,4.0428,4.0412,4.0413,4.0454,4.0449,4.0583,4.0601,4.0499,4.05,4.0501,0,3.9757,3.9808,3.9873,3.9909,3.994,3.9998,4.0036,4.0061,4.01,4.016,4.0197,4.0257,4.0306,4.04,4.0432,4.0487,4.0488,4.0531,4.0496,4.0489,4.0487,4.0484,4.0488,4.0537,4.0538,4.0539,4.0539,0,3.9854,3.9868,3.9923,3.9985,4.003,4.0079,4.0126,4.0154,4.0187,4.0229,4.0291,4.0329,4.0404,4.0463,4.052,4.0547,4.0548,4.055,4.0563,4.0558,4.0546,4.0552,4.0429,4.0547,4.0546,4.0546,4.0545,4.0545,3.9919,3.9963,4.0016,4.0077,4.0116,4.016,4.0205,4.0236,4.0289,4.0354,4.0365,4.043,4.0477,4.0554,4.0584,4.0633,4.0622,4.0641,4.0645,4.0649,4.0651,4.0539,4.0643,4.0643,4.0643,4.0643,4.0643,0,4.0015,4.0049,4.0105,4.0172,4.022,4.0219,4.0271,4.031,4.0369,4.0413,4.0462,4.0532,4.0589,4.0626,4.0683,4.0715,4.0717,4.0729,4.0726,4.0732,4.0658,4.0641,4.0727,4.0727,4.0727,4.0727,4.0727,4.0727,4.007,4.0146,4.0166,4.0259,4.0293,4.0359,4.0389,4.0428,4.0464,4.0543,4.0591,4.0616,4.0657,4.0716,4.0767,4.0776,4.0796,4.0809,4.0817,4.0747,4.0738,4.0729,4.0714,4.0813,4.0813,4.0887,4.0888,4.0889]}]]